[[{"header":{"parameterUnit":"m.s-1","parameterCategory":1,"la1":30.2991,"la2":30.254,"lo1":-89.0895,"lo2":-89.0444,"dy":0.0017,"dx":0.0017,"nx":28,"ny":28,"refTime":"2025-07-23T21:00:00:Z","depth":0,"parameterNumber":2,"parameterNumberName":"U-component_of_WINDS"},"data":[0,0,0,0,0,0,0,0,0,0,0,0,0,0,0,0,0,0,0,0,0,0,0,0,0,0,0,0,0,0,0,0,0,0,0,0,0,0,0,0,0,0,0,0,0,0,0,0,0,0,0,0,0,0,0,0,0,0,-1.5658,-1.5657,0,-1.5588,-1.5587,-1.5586,-1.5554,-1.5554,-1.5554,-1.5554,-1.5479,-1.5477,-1.5475,0,0,0,0,0,0,0,0,0,0,0,0,0,-1.5761,-1.5759,-1.5658,-1.5657,-1.5656,-1.5588,-1.5587,-1.5586,-1.5554,-1.5554,-1.5554,-1.5554,-1.548,-1.5478,-1.5475,0,0,0,0,0,0,0,0,0,0,0,0,0,-1.5706,-1.5758,-1.5658,-1.5632,-1.5629,-1.5588,-1.5587,-1.5586,-1.5554,-1.5554,-1.5554,-1.5554,-1.5481,-1.5478,-1.5475,-1.5454,0,0,-1.5466,-1.5464,0,0,0,0,0,0,0,0,-1.5709,-1.5702,-1.5636,-1.5633,-1.563,-1.558,-1.5596,-1.5542,-1.5554,-1.5582,-1.5554,-1.5554,-1.5512,-1.5507,-1.5493,-1.5451,-1.5448,-1.5465,-1.5463,-1.5462,-1.5461,0,0,0,0,0,0,0,-1.5713,-1.5705,-1.563,-1.5635,-1.5632,-1.5623,-1.5615,-1.5586,-1.5547,-1.558,-1.5577,-1.5569,-1.5511,-1.5496,-1.5491,-1.5446,-1.5465,-1.5463,-1.5461,-1.546,-1.5384,-1.5384,0,0,0,0,0,0,-1.5721,-1.5708,-1.5632,-1.5628,-1.5671,-1.5621,-1.5612,-1.5596,-1.5548,-1.5541,-1.5569,-1.5568,-1.5502,-1.5495,-1.5489,-1.5462,-1.5462,-1.5459,-1.5457,-1.5384,-1.5384,-1.5384,0,0,0,0,0,0,-1.5724,-1.5715,-1.5635,-1.5667,-1.5657,-1.5619,-1.5601,-1.5594,-1.558,-1.554,-1.5533,-1.5562,-1.5501,-1.5493,-1.5463,-1.5459,-1.5458,-1.5455,-1.5384,-1.5384,-1.5384,-1.5408,0,0,0,0,0,0,-1.5727,-1.5716,-1.5708,-1.5668,-1.5655,-1.5612,-1.56,-1.5593,-1.5575,-1.5573,-1.5531,-1.5524,-1.5501,-1.5468,-1.546,-1.5454,-1.5453,-1.5385,-1.5384,-1.5384,-1.5407,-1.5408,-1.5409,0,0,0,0,0,-1.573,-1.5717,-1.5708,-1.5699,-1.5645,-1.5611,-1.5604,-1.5578,-1.5575,-1.5566,-1.5541,-1.5526,-1.5461,-1.5465,-1.5456,-1.5449,-1.5385,-1.5384,-1.5384,-1.5407,-1.5408,-1.5409,0,0,0,0,0,0,-1.5756,-1.5711,-1.57,-1.5673,-1.5647,-1.5606,-1.5594,-1.558,-1.5553,-1.5552,-1.552,-1.5511,-1.5484,-1.5464,-1.547,-1.5427,-1.5421,-1.5419,-1.5442,-1.5443,-1.5444,-1.5449,-1.545,0,0,0,0,0,-1.5759,-1.5736,-1.5698,-1.5677,-1.5665,-1.5632,-1.5617,-1.5599,-1.557,-1.5558,-1.553,-1.5502,-1.5475,-1.5458,-1.5431,-1.5404,-1.5395,-1.5395,-1.5396,-1.5397,-1.5395,-1.538,-1.538,-1.5383,-1.5383,-1.5383,0,0,-1.5763,-1.5736,-1.5724,-1.5682,-1.5659,-1.5636,-1.5623,-1.5599,-1.5581,-1.5554,-1.5525,-1.5504,-1.5469,-1.5442,-1.5428,-1.5424,-1.5393,-1.5397,-1.5398,-1.5395,-1.538,-1.538,-1.538,-1.5382,-1.5382,-1.5382,0,0,-1.576,-1.5738,-1.5719,-1.5697,-1.5663,-1.5642,-1.5637,-1.5599,-1.5584,-1.5555,-1.5534,-1.5513,-1.5467,-1.5444,-1.5426,-1.5416,-1.5401,-1.5408,-1.5413,-1.5399,-1.5399,-1.5398,-1.5395,-1.5394,-1.5407,-1.5407,-1.5407,0,-1.577,-1.5736,-1.571,-1.5688,-1.567,-1.5646,-1.5626,-1.5606,-1.5565,-1.5553,-1.5549,-1.5492,-1.5467,-1.5434,-1.5432,-1.5418,-1.5412,-1.5412,-1.5401,-1.5401,-1.54,-1.5396,-1.5395,-1.5408,-1.5408,-1.5408,-1.5408,0,-1.575,-1.5726,-1.5714,-1.5677,-1.5658,-1.5637,-1.5608,-1.5591,-1.5576,-1.5555,-1.5526,-1.5496,-1.5462,-1.5453,-1.5437,-1.5418,-1.5416,-1.5408,-1.5401,-1.5401,-1.5397,-1.5395,-1.5409,-1.5409,-1.5409,-1.5408,0,0,-1.5759,-1.5709,-1.5705,-1.5688,-1.565,-1.5631,-1.5609,-1.5578,-1.5565,-1.5538,-1.5518,-1.5481,-1.5473,-1.5453,-1.5434,-1.5422,-1.5416,-1.5414,-1.5413,-1.5416,-1.5393,-1.54,-1.5398,-1.5407,-1.5406,-1.5406,-1.5396,0,-1.575,-1.5711,-1.5688,-1.5658,-1.5636,-1.5614,-1.5594,-1.5569,-1.5549,-1.5527,-1.5504,-1.5479,-1.547,-1.5458,-1.5445,-1.542,-1.5411,-1.542,-1.5387,-1.5386,-1.5396,-1.5396,-1.5403,-1.5395,-1.5394,-1.5394,-1.5393,0,-1.5735,-1.571,-1.5678,-1.5643,-1.5633,-1.5616,-1.5587,-1.5566,-1.5537,-1.5523,-1.5502,-1.5484,-1.5459,-1.5455,-1.5421,-1.5428,-1.5413,-1.5399,-1.5398,-1.5393,-1.5389,-1.5391,-1.5391,-1.539,-1.5391,-1.5391,-1.5391,0,-1.5745,-1.5703,-1.5679,-1.5665,-1.5624,-1.5613,-1.5595,-1.5566,-1.5549,-1.5523,-1.5512,-1.5483,-1.5466,-1.5444,-1.5419,-1.5418,-1.5387,-1.5381,-1.5374,-1.5375,-1.5368,-1.5369,-1.5366,-1.536,-1.536,-1.536,-1.536,0,-1.5737,-1.5718,-1.5683,-1.5668,-1.5646,-1.562,-1.5599,-1.5579,-1.5554,-1.5534,-1.5513,-1.5495,-1.5463,-1.544,-1.542,-1.5395,-1.5388,-1.5376,-1.5371,-1.5377,-1.5379,-1.5367,-1.5366,-1.5359,-1.536,-1.536,-1.536,0,-1.5744,-1.5719,-1.5691,-1.5656,-1.5647,-1.5632,-1.5601,-1.5586,-1.5566,-1.5541,-1.5534,-1.5502,-1.5475,-1.5447,-1.541,-1.5397,-1.5372,-1.5365,-1.5382,-1.5379,-1.5374,-1.5375,-1.5363,-1.536,-1.5357,-1.5357,-1.5357,0,-1.574,-1.5726,-1.5689,-1.5675,-1.5659,-1.5636,-1.5619,-1.5594,-1.5577,-1.5543,-1.5531,-1.5503,-1.5479,-1.5437,-1.541,-1.5381,-1.5373,-1.5371,-1.5369,-1.5376,-1.5373,-1.5374,-1.5372,-1.5372,-1.5372,-1.5372,-1.5372,0,-1.5736,-1.5726,-1.5703,-1.5676,-1.5657,-1.5635,-1.5611,-1.5601,-1.557,-1.5552,-1.5525,-1.5507,-1.547,-1.5442,-1.5411,-1.5392,-1.5377,-1.5373,-1.537,-1.5377,-1.5387,-1.5381,-1.5384,-1.5373,-1.5373,-1.5373,-1.5373,-1.5373,-1.5737,-1.5724,-1.5696,-1.5672,-1.5652,-1.5631,-1.5615,-1.5594,-1.5571,-1.554,-1.5526,-1.5499,-1.547,-1.5427,-1.5409,-1.5387,-1.5383,-1.5378,-1.5377,-1.5376,-1.5378,-1.5392,-1.5381,-1.5381,-1.5381,-1.5381,-1.5381,0,-1.5732,-1.5714,-1.5692,-1.5661,-1.5642,-1.5631,-1.5605,-1.5589,-1.5566,-1.5542,-1.5519,-1.5488,-1.5461,-1.5433,-1.5404,-1.5392,-1.5385,-1.5386,-1.5386,-1.5382,-1.5383,-1.5389,-1.5392,-1.5392,-1.5392,-1.5392,-1.5392,-1.5392,-1.5727,-1.5703,-1.569,-1.5656,-1.5638,-1.5612,-1.5598,-1.5578,-1.5559,-1.5526,-1.5504,-1.5486,-1.546,-1.543,-1.5405,-1.5397,-1.5387,-1.539,-1.5381,-1.5382,-1.5381,-1.5381,-1.5386,-1.5389,-1.5389,-1.5381,-1.5381,-1.5381]},{"header":{"parameterUnit":"m.s-1","parameterCategory":1,"la1":30.2991,"la2":30.254,"lo1":-89.0895,"lo2":-89.0444,"dy":0.0017,"dx":0.0017,"nx":28,"ny":28,"refTime":"2025-07-23T21:00:00:Z","depth":0,"parameterNumber":3,"parameterNumberName":"V-component_of_WINDS"},"data":[0,0,0,0,0,0,0,0,0,0,0,0,0,0,0,0,0,0,0,0,0,0,0,0,0,0,0,0,0,0,0,0,0,0,0,0,0,0,0,0,0,0,0,0,0,0,0,0,0,0,0,0,0,0,0,0,0,0,-0.596,-0.5959,0,-0.5914,-0.5914,-0.5913,-0.5925,-0.5926,-0.5927,-0.5928,-0.5886,-0.5884,-0.5882,0,0,0,0,0,0,0,0,0,0,0,0,0,-0.6061,-0.6059,-0.596,-0.5959,-0.5959,-0.5914,-0.5914,-0.5913,-0.5925,-0.5926,-0.5928,-0.5929,-0.5886,-0.5884,-0.5882,0,0,0,0,0,0,0,0,0,0,0,0,0,-0.6017,-0.6059,-0.596,-0.5959,-0.5959,-0.5914,-0.5914,-0.5913,-0.5925,-0.5926,-0.5928,-0.5929,-0.5887,-0.5884,-0.5881,-0.5836,0,0,-0.5872,-0.5871,0,0,0,0,0,0,0,0,-0.6019,-0.6013,-0.596,-0.5959,-0.5959,-0.5927,-0.5934,-0.5887,-0.5925,-0.5938,-0.5928,-0.593,-0.5899,-0.5895,-0.5883,-0.5834,-0.5832,-0.5872,-0.587,-0.5869,-0.5868,0,0,0,0,0,0,0,-0.6022,-0.6015,-0.5942,-0.5959,-0.5959,-0.5962,-0.5958,-0.5925,-0.5912,-0.5937,-0.5938,-0.5932,-0.5899,-0.5886,-0.5883,-0.5832,-0.5872,-0.587,-0.5868,-0.5867,-0.5742,-0.5741,0,0,0,0,0,0,-0.6025,-0.6017,-0.5943,-0.5941,-0.5993,-0.5959,-0.5954,-0.5936,-0.5912,-0.5909,-0.5931,-0.5933,-0.5891,-0.5886,-0.5881,-0.5827,-0.5869,-0.5866,-0.5865,-0.5744,-0.5742,-0.574,0,0,0,0,0,0,-0.6027,-0.6018,-0.5945,-0.5979,-0.597,-0.5956,-0.5936,-0.5934,-0.5922,-0.5907,-0.5905,-0.5921,-0.5891,-0.5885,-0.5847,-0.5826,-0.5865,-0.5862,-0.5745,-0.5743,-0.5741,-0.5718,0,0,0,0,0,0,-0.603,-0.6019,-0.6001,-0.5978,-0.5968,-0.5911,-0.5934,-0.5932,-0.5916,-0.5918,-0.5897,-0.5895,-0.5892,-0.5851,-0.5844,-0.5822,-0.586,-0.5747,-0.5744,-0.5742,-0.5721,-0.5715,-0.5711,0,0,0,0,0,-0.6034,-0.5998,-0.6,-0.5991,-0.5945,-0.591,-0.5904,-0.59,-0.5914,-0.5897,-0.5887,-0.5895,-0.5828,-0.5847,-0.5839,-0.5816,-0.5749,-0.5745,-0.5742,-0.5723,-0.5716,-0.5711,0,0,0,0,0,0,-0.6021,-0.5995,-0.5998,-0.5953,-0.5933,-0.5912,-0.589,-0.5893,-0.5871,-0.5874,-0.5871,-0.5866,-0.5827,-0.5817,-0.5839,-0.5771,-0.5791,-0.5786,-0.5779,-0.5773,-0.5768,-0.5772,-0.5858,0,0,0,0,0,-0.6012,-0.5984,-0.5963,-0.5926,-0.5916,-0.5904,-0.5889,-0.5887,-0.5867,-0.5859,-0.5847,-0.5828,-0.5803,-0.5787,-0.5763,-0.5718,-0.5714,-0.5698,-0.5693,-0.5689,-0.5686,-0.5662,-0.5655,-0.5729,-0.5729,-0.5729,0,0,-0.5996,-0.5978,-0.5961,-0.5923,-0.5908,-0.588,-0.5897,-0.5867,-0.5847,-0.5855,-0.5819,-0.5808,-0.5787,-0.5745,-0.5726,-0.5736,-0.5664,-0.5685,-0.5681,-0.568,-0.5658,-0.5651,-0.5644,-0.5726,-0.5727,-0.5727,0,0,-0.5952,-0.5935,-0.5902,-0.5885,-0.586,-0.5852,-0.5844,-0.5821,-0.5814,-0.5776,-0.5782,-0.5757,-0.5714,-0.5699,-0.5685,-0.5632,-0.5639,-0.5624,-0.5599,-0.5575,-0.557,-0.5565,-0.5547,-0.5541,-0.562,-0.5619,-0.5619,0,-0.5935,-0.5892,-0.5885,-0.5854,-0.5837,-0.584,-0.5808,-0.5792,-0.5761,-0.5751,-0.5761,-0.5705,-0.5691,-0.5646,-0.5633,-0.5621,-0.5613,-0.5628,-0.5571,-0.5566,-0.5561,-0.5544,-0.5537,-0.5618,-0.5618,-0.5618,-0.5618,0,-0.5873,-0.5843,-0.582,-0.5788,-0.5768,-0.5736,-0.5725,-0.5706,-0.5705,-0.5696,-0.5657,-0.564,-0.5612,-0.5601,-0.56,-0.5555,-0.5562,-0.5571,-0.5592,-0.5552,-0.5537,-0.553,-0.5616,-0.5616,-0.5617,-0.5617,0,0,-0.5825,-0.5786,-0.5778,-0.5763,-0.5734,-0.5712,-0.5679,-0.565,-0.5635,-0.5612,-0.5587,-0.5548,-0.5556,-0.554,-0.5538,-0.5517,-0.5477,-0.5529,-0.5528,-0.5522,-0.5428,-0.5423,-0.5416,-0.548,-0.5479,-0.5478,-0.543,0,-0.578,-0.5722,-0.5713,-0.5663,-0.5636,-0.5636,-0.5608,-0.5588,-0.5578,-0.5554,-0.5543,-0.5516,-0.5528,-0.5518,-0.5497,-0.5486,-0.5459,-0.5489,-0.5458,-0.5457,-0.5467,-0.5407,-0.5403,-0.5359,-0.5424,-0.5423,-0.5422,0,-0.5721,-0.5694,-0.5641,-0.5615,-0.5603,-0.5578,-0.555,-0.5526,-0.5503,-0.5497,-0.5478,-0.5477,-0.5445,-0.5464,-0.542,-0.5441,-0.5427,-0.5419,-0.5418,-0.5417,-0.544,-0.5408,-0.5345,-0.5339,-0.5412,-0.5413,-0.5414,0,-0.5693,-0.5644,-0.5606,-0.5593,-0.5561,-0.5543,-0.5529,-0.5507,-0.549,-0.5465,-0.5454,-0.5426,-0.5412,-0.5391,-0.5383,-0.5397,-0.534,-0.5358,-0.5336,-0.5336,-0.5327,-0.5329,-0.5264,-0.5313,-0.5313,-0.5313,-0.5313,0,-0.5645,-0.5613,-0.5592,-0.5569,-0.5533,-0.5523,-0.5488,-0.5474,-0.5454,-0.5429,-0.5427,-0.5404,-0.5394,-0.5369,-0.5362,-0.5328,-0.532,-0.5316,-0.5315,-0.5318,-0.5319,-0.5311,-0.5315,-0.5312,-0.5312,-0.5312,-0.5313,0,-0.561,-0.5594,-0.5553,-0.5524,-0.5516,-0.5491,-0.5468,-0.5446,-0.5434,-0.5402,-0.5394,-0.5377,-0.5347,-0.5336,-0.5301,-0.5296,-0.5257,-0.5257,-0.5264,-0.5265,-0.5244,-0.5247,-0.5175,-0.5165,-0.5219,-0.5218,-0.5218,0,-0.5582,-0.5557,-0.5525,-0.5507,-0.5492,-0.5463,-0.5445,-0.5433,-0.5414,-0.5384,-0.5366,-0.5336,-0.5312,-0.5265,-0.525,-0.5223,-0.5224,-0.52,-0.522,-0.5223,-0.5226,-0.5229,-0.5227,-0.5198,-0.5197,-0.5197,-0.5196,0,-0.5536,-0.5528,-0.5501,-0.547,-0.5447,-0.5423,-0.5399,-0.5385,-0.5369,-0.5348,-0.5317,-0.5298,-0.526,-0.5231,-0.5202,-0.5189,-0.5191,-0.5189,-0.5183,-0.5187,-0.5194,-0.5192,-0.5257,-0.5192,-0.5193,-0.5193,-0.5193,-0.5193,-0.5505,-0.5482,-0.5456,-0.5425,-0.5405,-0.5382,-0.536,-0.5344,-0.5317,-0.5285,-0.5279,-0.5246,-0.5222,-0.5184,-0.5169,-0.5144,-0.515,-0.5141,-0.5139,-0.5138,-0.5137,-0.5194,-0.5138,-0.5138,-0.5138,-0.5139,-0.5139,0,-0.546,-0.5442,-0.5413,-0.5379,-0.5354,-0.5354,-0.5327,-0.5308,-0.5278,-0.5255,-0.523,-0.5194,-0.5165,-0.5146,-0.5117,-0.5101,-0.5101,-0.5094,-0.5097,-0.5094,-0.5132,-0.5141,-0.5094,-0.5094,-0.5094,-0.5094,-0.5094,-0.5094,-0.5434,-0.5396,-0.5385,-0.5337,-0.532,-0.5286,-0.5271,-0.525,-0.5231,-0.5191,-0.5166,-0.5153,-0.5131,-0.51,-0.5074,-0.5069,-0.506,-0.5053,-0.5049,-0.5086,-0.5091,-0.5096,-0.5104,-0.505,-0.505,-0.5013,-0.5013,-0.5012]}]]